TimeCST,TemperatureF,Dew PointF,Humidity,Sea Level PressureIn,VisibilityMPH,Wind Direction,Wind SpeedMPH,Gust SpeedMPH,PrecipitationIn,Events,Conditions,WindDirDegrees,DateUTC
12:53 AM,25.0,12.9,60,30.20,-9999.0,Calm,Calm,-,N/A,,Unknown,0,2014-02-12 06:53:00
1:53 AM,26.1,15.1,63,30.19,-9999.0,West,6.9,-,N/A,,Unknown,270,2014-02-12 07:53:00
2:53 AM,25.0,15.1,66,30.17,-9999.0,West,6.9,-,N/A,,Unknown,280,2014-02-12 08:53:00
3:53 AM,26.1,17.1,69,30.14,-9999.0,West,5.8,-,N/A,,Unknown,270,2014-02-12 09:53:00
4:53 AM,25.0,17.1,72,30.12,-9999.0,WSW,5.8,-,N/A,,Unknown,250,2014-02-12 10:53:00
5:53 AM,27.0,17.1,66,30.12,-9999.0,WSW,8.1,-,N/A,,Unknown,250,2014-02-12 11:53:00
6:53 AM,23.0,14.0,68,30.16,-9999.0,West,4.6,-,N/A,,Unknown,260,2014-02-12 12:53:00
7:53 AM,25.0,16.0,69,30.17,-9999.0,Calm,Calm,-,N/A,,Unknown,0,2014-02-12 13:53:00
8:53 AM,37.9,19.9,48,30.17,-9999.0,WSW,6.9,-,N/A,,Unknown,240,2014-02-12 14:53:00
9:53 AM,45.0,21.0,39,30.17,-9999.0,WSW,13.8,-,N/A,,Unknown,240,2014-02-12 15:53:00
10:53 AM,54.0,23.0,30,30.16,-9999.0,WSW,11.5,-,N/A,,Unknown,250,2014-02-12 16:53:00
11:53 AM,59.0,24.1,26,30.14,-9999.0,Calm,Calm,-,N/A,,Unknown,0,2014-02-12 17:53:00
12:53 PM,64.9,24.1,21,30.10,-9999.0,Variable,4.6,-,N/A,,Unknown,0,2014-02-12 18:53:00
1:53 PM,71.1,21.9,16,30.06,-9999.0,NW,11.5,17.3,N/A,,Unknown,310,2014-02-12 19:53:00
2:53 PM,72.0,19.0,13,30.03,-9999.0,NNW,11.5,-,N/A,,Unknown,330,2014-02-12 20:53:00
3:53 PM,71.1,14.0,11,30.03,-9999.0,NW,13.8,20.7,N/A,,Unknown,320,2014-02-12 21:53:00
4:53 PM,70.0,15.1,12,30.01,-9999.0,North,12.7,17.3,N/A,,Unknown,360,2014-02-12 22:53:00
5:53 PM,66.9,16.0,14,30.02,-9999.0,North,10.4,-,N/A,,Unknown,360,2014-02-12 23:53:00
6:53 PM,57.9,16.0,19,30.05,-9999.0,NNE,6.9,-,N/A,,Unknown,20,2014-02-13 00:53:00
7:53 PM,53.1,17.1,24,30.07,-9999.0,North,6.9,-,N/A,,Unknown,360,2014-02-13 01:53:00
8:53 PM,48.9,17.1,28,30.05,-9999.0,North,5.8,-,N/A,,Unknown,360,2014-02-13 02:53:00
9:53 PM,46.0,17.1,31,30.04,-9999.0,NW,8.1,-,N/A,,Unknown,310,2014-02-13 03:53:00
10:53 PM,44.1,18.0,35,30.02,-9999.0,West,5.8,-,N/A,,Unknown,270,2014-02-13 04:53:00
11:53 PM,45.0,18.0,34,29.99,-9999.0,West,5.8,-,N/A,,Unknown,270,2014-02-13 05:53:00